CW0570 Weather Reports


Display with metric or nautical units.
time (UTC)temp
F
wind
direction
speed
MPH
gust
MPH
rain 1hr
in
rain 24hr
in
rain mn
in
humidity
%
barometer
mb
20260508220046 71 175 1.0 8.0 0.00 0.00 0.00 66 1020.6
20260508214543 70 235 0.0 6.0 0.00 0.00 0.00 69 1020.7
20260508213039 70 219 1.0 6.0 0.00 0.00 0.00 67 1020.7
20260508211534 70 221 2.0 8.0 0.00 0.00 0.00 67 1020.7
20260508210036 70 331 2.0 9.0 0.00 0.00 0.00 67 1020.6
20260508204536 70 27 1.0 8.0 0.00 0.00 0.00 68 1020.6
20260508203033 69 343 1.0 5.0 0.00 0.00 0.00 69 1020.8
20260508201527 68 24 2.0 9.0 0.00 0.00 0.00 68 1021.0
20260508200025 68 318 1.0 9.0 0.00 0.00 0.00 69 1021.0
20260508194524 68 360 1.0 9.0 0.00 0.00 0.00 68 1021.0
20260508193022 67 292 1.0 6.0 0.00 0.00 0.00 70 1021.1
20260508191520 66 360 1.0 8.0 0.00 0.00 0.00 72 1021.3
20260508190016 65 347 1.0 4.0 0.00 0.00 0.00 71 1021.5
20260508184519 65 306 4.0 8.0 0.00 0.00 0.00 72 1021.6
20260508183010 63 16 1.0 6.0 0.00 0.00 0.00 76 1021.7
20260508181506 61 17 0.0 4.0 0.00 0.00 0.00 80 1021.8
20260508180002 60 326 2.0 5.0 0.00 0.00 0.00 79 1022.1
20260508174600 58 5 2.0 5.0 0.00 0.00 0.00 83 1022.1
20260508173054 57 11 1.0 6.0 0.00 0.00 0.00 84 1022.1
20260508171553 56 355 1.0 6.0 0.00 0.00 0.00 85 1022.2
20260508170054 55 348 1.0 6.0 0.00 0.00 0.00 86 1022.3
20260508164548 55 57 0.0 2.0 0.00 0.00 0.00 87 1022.4
20260508163059 54 271 1.0 5.0 0.00 0.00 0.00 88 1022.3
20260508161554 53 341 3.0 6.0 0.00 0.00 0.00 89 1022.4
20260508160043 52 360 1.0 3.0 0.00 0.00 0.00 89 1022.6
20260508154541 52 260 0.0 3.0 0.00 0.00 0.00 90 1022.4
20260508153055 52 254 1.0 3.0 0.00 0.00 0.00 90 1022.2
20260508151540 52 341 0.0 2.0 0.00 0.00 0.00 91 1022.3
20260508043021 54 355 0.0 4.0 0.00 0.00 0.00 88 1020.3
20260508041518 55 284 1.0 4.0 0.00 0.00 0.00 87 1020.3
20260508040017 56 279 0.0 6.0 0.00 0.00 0.00 86 1019.9
20260508034521 57 311 0.0 5.0 0.00 0.00 0.00 86 1019.5
20260508033027 58 340 0.0 2.0 0.00 0.00 0.00 88 1018.9
20260508031517 60 340 0.0 2.0 0.00 0.00 0.00 86 1018.6
20260508030016 61 340 0.0 2.0 0.00 0.00 0.00 85 1018.3
20260508024515 62 35 0.0 2.0 0.00 0.00 0.00 82 1018.1
20260508023015 63 35 0.0 2.0 0.00 0.00 0.00 79 1018.1
20260508021515 65 301 0.0 3.0 0.00 0.00 0.00 76 1018.0
20260508020015 68 275 1.0 3.0 0.00 0.00 0.00 70 1017.9
20260508014513 71 257 0.0 3.0 0.00 0.00 0.00 67 1017.8
20260508013014 72 258 0.0 4.0 0.00 0.00 0.00 65 1017.9
20260508011511 73 298 1.0 4.0 0.00 0.00 0.00 64 1018.0
20260508010021 72 289 0.0 4.0 0.00 0.00 0.00 63 1018.0
20260508004518 71 309 0.0 5.0 0.00 0.00 0.00 63 1018.1
20260508003008 71 293 3.0 9.0 0.00 0.00 0.00 63 1018.4
20260508001507 71 360 0.0 4.0 0.00 0.00 0.00 64 1018.4
20260508000005 71 348 3.0 8.0 0.00 0.00 0.00 63 1018.5
20260507234504 71 15 2.0 8.0 0.00 0.00 0.00 63 1018.5
20260507233003 71 224 1.0 5.0 0.00 0.00 0.00 66 1018.8
20260507231502 70 242 1.0 4.0 0.00 0.00 0.00 66 1018.9
20260507230111 70 148 1.0 8.0 0.00 0.00 0.00 70 1019.1
20260507224604 69 234 2.0 8.0 0.00 0.00 0.00 67 1019.2
20260507223059 70 127 1.0 9.0 0.00 0.00 0.00 68 1019.3
20260507221559 70 246 5.0 12.0 0.00 0.00 0.00 66 1019.2